Flight Track Log - Related Links

Times and Time Zones

All times are in EDT time to prevent confusion due to time zone crossing. See the SWA1496 flight status page for this flight to view local times or setup timezone preferences in your user account.

Time Position Orientation Groundspeed Altitude Reporting Facility
EDT Latitude Longitude Course Direction KTS MPH feet Rate Location/Type
Thu 02:57:05 PM 37.7500 -122.2833 202° Southwest 197 227 1,600  Level Northern Cal TRACON
Thu 02:58:05 PM 37.7833 -122.3500 302° West 236 272 4,500 3,150 Climbing Northern Cal TRACON
Thu 02:59:05 PM 37.7667 -122.4167 252° West 246 283 7,900 3,150 Climbing Northern Cal TRACON
Thu 03:00:05 PM 37.7167 -122.4833 227° Southwest 270 311 10,800 2,244 Climbing Northern Cal TRACON
Thu 03:01:16 PM 37.6492 -122.5644 224° Southwest 319 367 12,800 2,273 Climbing Oakland Center
Thu 03:02:00 PM 37.1536 -122.4732 202° Southwest  Level FlightAware Approximate
Thu 03:02:17 PM 37.5686 -122.6328 214° Southwest 342 394 15,800  Level Oakland Center
Thu 03:03:19 PM 37.4631 -122.6953 205° Southwest 358 412 18,800 2,661 Climbing Oakland Center
Thu 03:04:21 PM 37.3594 -122.6767 172° South 374 430 21,300 2,323 Climbing Oakland Center
Thu 03:05:23 PM 37.2561 -122.6511 169° South 375 432 23,600 2,098 Climbing Oakland Center
Thu 03:06:24 PM 37.1550 -122.6064 161° South 382 440 25,600 1,707 Climbing Oakland Center
Thu 03:07:26 PM 37.0639 -122.5203 143° Southeast 402 463 27,100 1,415 Climbing Oakland Center
Thu 03:08:27 PM 36.9683 -122.4325 144° Southeast 423 487 28,500 1,561 Climbing Oakland Center
Thu 03:09:29 PM 36.8714 -122.3422 143° Southeast 432 497 30,300 2,081 Climbing Oakland Center
Thu 03:10:31 PM 36.7583 -122.2378 143° Southeast 426 490 32,800 2,195 Climbing Oakland Center
Thu 03:11:32 PM 36.6678 -122.1547 144° Southeast 410 472 34,800 1,073 Climbing Oakland Center
Thu 03:12:34 PM 36.5772 -122.0708 143° Southeast 407 468 35,000 97 Climbing Oakland Center
Thu 03:13:36 PM 36.4850 -121.9853 143° Southeast 410 472 35,000  Level Oakland Center
Thu 03:14:37 PM 36.3906 -121.9000 144° Southeast 415 478 35,000  Level Oakland Center
Thu 03:16:41 PM 36.1933 -121.7064 142° Southeast 427 491 35,000  Level Oakland Center
Thu 03:17:42 PM 36.1175 -121.5883 128° Southeast 435 501 35,000 -49 Level Oakland Center
Thu 03:18:44 PM 36.0414 -121.4722 129° Southeast 436 502 34,900  Descending Oakland Center
Thu 03:19:46 PM 35.9639 -121.3569 130° Southeast 437 503 35,000  Climbing Oakland Center
Thu 03:20:47 PM 35.8875 -121.2406 129° Southeast 436 502 34,900  Descending Oakland Center
Thu 03:21:49 PM 35.7942 -121.1028 130° Southeast 436 502 35,000 48 Climbing Oakland Center
Thu 03:22:51 PM 35.7178 -120.9872 129° Southeast 435 501 35,000  Level Oakland Center
Thu 03:23:52 PM 35.6400 -120.8722 130° Southeast 436 502 35,000  Level Oakland Center
Thu 03:24:57 PM 35.5675 -120.7667 130° Southeast 438 504 35,000  Level Los Angeles Center
Thu 03:25:59 PM 35.4744 -120.6283 130° Southeast 438 504 35,000  Level Los Angeles Center
Thu 03:27:02 PM 35.3964 -120.5147 130° Southeast 438 504 35,000  Level Los Angeles Center
Thu 03:28:04 PM 35.3178 -120.3981 130° Southeast 439 505 35,000  Level Los Angeles Center
Thu 03:29:06 PM 35.2386 -120.2828 130° Southeast 441 507 35,000  Level Los Angeles Center
Thu 03:30:08 PM 35.1611 -120.1678 129° Southeast 440 506 35,000  Level Los Angeles Center
Thu 03:31:10 PM 35.0697 -120.0350 130° Southeast 438 504 35,000  Level Los Angeles Center
Thu 03:32:13 PM 34.9914 -119.9225 130° Southeast 438 504 35,000 -48 Level Los Angeles Center
Thu 03:33:15 PM 34.9136 -119.8117 131° Southeast 437 503 34,900 -48 Descending Los Angeles Center
Thu 03:34:17 PM 34.8367 -119.7000 130° Southeast 435 501 34,900 48 Level Los Angeles Center
Thu 03:35:19 PM 34.7586 -119.5894 131° Southeast 435 501 35,000 48 Climbing Los Angeles Center
Thu 03:36:21 PM 34.6664 -119.4569 130° Southeast 433 498 35,000  Level Los Angeles Center
Thu 03:37:23 PM 34.5844 -119.3431 131° Southeast 430 495 35,000  Level Los Angeles Center
Thu 03:38:25 PM 34.5081 -119.2347 131° Southeast 428 493 35,000  Level Los Angeles Center
Thu 03:39:27 PM 34.4311 -119.1278 131° Southeast 423 487 35,000  Level Los Angeles Center
Thu 03:40:29 PM 34.3550 -119.0208 131° Southeast 423 487 35,000 -96 Level Los Angeles Center
Thu 03:41:32 PM 34.2786 -118.9131 131° Southeast 422 486 34,800 -576 Descending Los Angeles Center
Thu 03:42:34 PM 34.2028 -118.8064 131° Southeast 422 486 33,800 -1,016 Descending Los Angeles Center
Thu 03:43:36 PM 34.1106 -118.6797 131° Southeast 421 484 32,700 -1,016 Descending Los Angeles Center
Thu 03:44:38 PM 34.0339 -118.5717 131° Southeast 422 486 31,700 -968 Descending Los Angeles Center
Thu 03:45:40 PM 33.9550 -118.4628 131° Southeast 425 489 30,700 -919 Descending Los Angeles Center
Thu 03:46:42 PM 33.8744 -118.3544 132° Southeast 430 495 29,800 -871 Descending Los Angeles Center
Thu 03:47:44 PM 33.7839 -118.2475 136° Southeast 437 503 28,900 -387 Descending Los Angeles Center
Thu 03:48:46 PM 33.7006 -118.1347 132° Southeast 438 504 29,000 48 Climbing Los Angeles Center
Thu 03:49:49 PM 33.6147 -118.0244 133° Southeast 445 512 29,000  Level Los Angeles Center
Thu 03:50:51 PM 33.5311 -117.9189 134° Southeast 438 504 29,000 -339 Level Los Angeles Center
Thu 03:51:53 PM 33.4394 -117.8036 134° Southeast 399 459 28,300 -1,452 Descending Los Angeles Center
Thu 03:52:55 PM 33.3669 -117.7133 134° Southeast 381 438 26,000 -2,032 Descending Los Angeles Center
Thu 03:53:57 PM 33.2964 -117.6244 134° Southeast 372 428 24,100 -1,872 Descending Los Angeles Center
Thu 03:55:00 PM 33.2247 -117.5461 138° Southeast 351 404 22,100 -2,016 Descending Los Angeles Center
Thu 03:56:02 PM 33.1486 -117.4781 143° Southeast 343 395 19,900 -2,226 Descending Los Angeles Center
Thu 03:57:04 PM 33.0733 -117.4178 146° Southeast 329 379 17,500 -2,468 Descending Los Angeles Center
Thu 03:58:06 PM 32.9886 -117.3514 147° Southeast 321 369 14,800 -2,344 Descending Los Angeles Center
Thu 03:59:12 PM 32.9167 -117.2833 142° Southeast 297 342 12,500 -2,095 Descending Southern California TRACON
Thu 04:00:12 PM 32.8333 -117.2333 153° Southeast 303 349 10,400 -1,524 Descending Southern California TRACON
Thu 04:01:18 PM 32.8000 -117.1500 115° Southeast 265 305 9,300 -1,268 Descending Southern California TRACON
Thu 04:02:15 PM 32.7833 -117.0828 106° East 251 289 7,800 -1,263 Descending Los Angeles Center
Thu 04:03:12 PM 32.7667 -117.0167 107° East 223 257 6,900 -1,077 Descending Southern California TRACON
Thu 04:04:12 PM 32.7500 -116.9500 107° East 192 221 5,700 -950 Descending Southern California TRACON
Thu 04:05:12 PM 32.7500 -116.8833 90° East 199 229 5,000 -344 Descending Southern California TRACON
Thu 04:06:14 PM 32.7000 -116.8667 164° South 213 245 5,000 -250 Level Southern California TRACON
Thu 04:07:12 PM 32.6667 -116.9167 232° Southwest 210 242 4,500 -706 Descending Southern California TRACON
Thu 04:08:13 PM 32.6833 -116.9833 287° West 199 229 3,600 -992 Descending Southern California TRACON
Thu 04:09:13 PM 32.7000 -117.0500 287° West 194 223 2,500 -950 Descending Southern California TRACON
Thu 04:10:13 PM 32.7167 -117.1000 292° West 136 157 1,700 -850 Descending Southern California TRACON
Thu 04:11:13 PM 32.7167 -117.1333 270° West 140 161 800 -583 Descending Southern California TRACON
Thu 04:12:37 PM 32.7336 -117.1947 288° West 134 154 300 -357 Descending Los Angeles Center

Login

Don't have an account? Register now (free) for customized features, flight alerts, and more!